[[{"header":{"parameterUnit":"m.s-1","parameterCategory":1,"la1":30.2991,"la2":30.254,"lo1":-89.0895,"lo2":-89.0444,"dy":0.0017,"dx":0.0017,"nx":28,"ny":28,"refTime":"2023-11-20T03:00:00:Z","depth":0,"parameterNumber":2,"parameterNumberName":"U-component_of_WINDS"},"data":[0,0,0,0,0,0,0,0,0,0,0,0,0,0,0,0,0,0,0,0,0,0,0,0,0,0,0,0,0,0,0,0,0,0,0,0,0,0,0,0,0,0,0,0,0,0,0,0,0,0,0,0,0,0,0,0,0,0,-2.7895,-2.7896,0,-2.8056,-2.8058,-2.806,-2.8145,-2.8145,-2.8145,-2.8145,-2.8313,-2.8318,-2.8322,0,0,0,0,0,0,0,0,0,0,0,0,0,-2.766,-2.7664,-2.7894,-2.7896,-2.7898,-2.8056,-2.8058,-2.8061,-2.8145,-2.8145,-2.8145,-2.8145,-2.8312,-2.8317,-2.8322,0,0,0,0,0,0,0,0,0,0,0,0,0,-2.7786,-2.7665,-2.7894,-2.7959,-2.7967,-2.8056,-2.8058,-2.8061,-2.8145,-2.8145,-2.8145,-2.8145,-2.831,-2.8317,-2.8323,-2.836,0,0,-2.8343,-2.8346,0,0,0,0,0,0,0,0,-2.7779,-2.7795,-2.7948,-2.7955,-2.7964,-2.8081,-2.8038,-2.8161,-2.8145,-2.8077,-2.8145,-2.8145,-2.8236,-2.8249,-2.8279,-2.8368,-2.8375,-2.8344,-2.8348,-2.835,-2.8352,0,0,0,0,0,0,0,-2.777,-2.7788,-2.7959,-2.795,-2.796,-2.7981,-2.7999,-2.8062,-2.8154,-2.8083,-2.809,-2.8108,-2.824,-2.8272,-2.8283,-2.8378,-2.8343,-2.8349,-2.8353,-2.8356,-2.8506,-2.8506,0,0,0,0,0,0,-2.7751,-2.778,-2.7953,-2.7963,-2.787,-2.7985,-2.8006,-2.8043,-2.8153,-2.817,-2.8107,-2.8111,-2.8261,-2.8275,-2.8289,-2.834,-2.835,-2.8356,-2.836,-2.8506,-2.8506,-2.8506,0,0,0,0,0,0,-2.7745,-2.7765,-2.7947,-2.7874,-2.7899,-2.7989,-2.803,-2.8046,-2.8078,-2.8171,-2.8188,-2.8123,-2.8262,-2.828,-2.8342,-2.8347,-2.8359,-2.8365,-2.8506,-2.8506,-2.8506,-2.8442,0,0,0,0,0,0,-2.7738,-2.7763,-2.7777,-2.7873,-2.7902,-2.7995,-2.8031,-2.8049,-2.8089,-2.8095,-2.819,-2.8206,-2.8263,-2.8332,-2.8348,-2.8357,-2.8371,-2.8506,-2.8506,-2.8506,-2.8444,-2.844,-2.8436,0,0,0,0,0,-2.7729,-2.7753,-2.7777,-2.7798,-2.7922,-2.7996,-2.8012,-2.8076,-2.8089,-2.8104,-2.8165,-2.8203,-2.8344,-2.8337,-2.8357,-2.8367,-2.8506,-2.8506,-2.8506,-2.8446,-2.8441,-2.8436,0,0,0,0,0,0,-2.7655,-2.7766,-2.7795,-2.785,-2.7912,-2.801,-2.8031,-2.8069,-2.813,-2.8133,-2.8211,-2.8232,-2.8286,-2.8333,-2.8323,-2.8409,-2.8429,-2.8433,-2.8376,-2.8372,-2.8369,-2.8356,-2.8376,0,0,0,0,0,-2.7645,-2.7695,-2.779,-2.7829,-2.7859,-2.7939,-2.7974,-2.8018,-2.8086,-2.8114,-2.8178,-2.8244,-2.8303,-2.8341,-2.84,-2.8451,-2.8474,-2.8468,-2.8464,-2.8461,-2.8463,-2.8495,-2.8494,-2.8507,-2.8507,-2.8507,0,0,-2.7625,-2.7692,-2.7719,-2.7816,-2.787,-2.792,-2.7961,-2.8013,-2.8052,-2.8122,-2.8184,-2.8234,-2.8312,-2.8369,-2.8397,-2.8409,-2.8465,-2.8461,-2.8457,-2.8462,-2.8495,-2.8493,-2.8492,-2.8507,-2.8507,-2.8507,0,0,-2.7614,-2.7669,-2.7708,-2.7761,-2.7842,-2.7895,-2.7905,-2.7997,-2.8032,-2.8095,-2.8149,-2.8197,-2.8297,-2.8351,-2.8391,-2.8401,-2.844,-2.8419,-2.8398,-2.8428,-2.8427,-2.8426,-2.843,-2.8431,-2.8421,-2.8421,-2.8421,0,-2.7578,-2.7656,-2.7724,-2.7773,-2.7814,-2.7879,-2.792,-2.7969,-2.8065,-2.8092,-2.8105,-2.8232,-2.829,-2.836,-2.8362,-2.8393,-2.8407,-2.8408,-2.8422,-2.8422,-2.8422,-2.8427,-2.8428,-2.8418,-2.8418,-2.8418,-2.8419,0,-2.7609,-2.7662,-2.7684,-2.7775,-2.7819,-2.7863,-2.7938,-2.7975,-2.8016,-2.8068,-2.8132,-2.8204,-2.8279,-2.8299,-2.8339,-2.8376,-2.8381,-2.8406,-2.8428,-2.8417,-2.8422,-2.8425,-2.8413,-2.8414,-2.8415,-2.8416,0,0,-2.7554,-2.7682,-2.7689,-2.7731,-2.7826,-2.7868,-2.7916,-2.799,-2.802,-2.8084,-2.8127,-2.8211,-2.8235,-2.8281,-2.8328,-2.8354,-2.8358,-2.8377,-2.838,-2.8371,-2.8403,-2.8383,-2.8384,-2.8384,-2.8385,-2.8385,-2.8396,0,-2.7556,-2.7644,-2.7707,-2.7771,-2.7822,-2.7885,-2.7927,-2.799,-2.804,-2.8091,-2.8148,-2.8206,-2.8233,-2.8262,-2.829,-2.8351,-2.8365,-2.8351,-2.8425,-2.8427,-2.8403,-2.8387,-2.8366,-2.8373,-2.8399,-2.84,-2.84,0,-2.757,-2.7632,-2.77,-2.779,-2.7814,-2.785,-2.7923,-2.797,-2.8044,-2.8079,-2.813,-2.8178,-2.8233,-2.825,-2.8327,-2.8316,-2.835,-2.8385,-2.8386,-2.8396,-2.8412,-2.8395,-2.8376,-2.8377,-2.8404,-2.8404,-2.8403,0,-2.7523,-2.7624,-2.7678,-2.7712,-2.7818,-2.7842,-2.7888,-2.7961,-2.8001,-2.8065,-2.8092,-2.8162,-2.82,-2.8253,-2.832,-2.8326,-2.839,-2.8412,-2.8421,-2.8419,-2.8431,-2.8429,-2.8417,-2.8453,-2.8453,-2.8453,-2.8453,0,-2.7518,-2.7558,-2.7658,-2.7692,-2.7738,-2.7811,-2.7855,-2.7906,-2.7971,-2.8016,-2.8076,-2.8118,-2.8203,-2.8255,-2.8308,-2.8363,-2.838,-2.8411,-2.8424,-2.8405,-2.8401,-2.8428,-2.8429,-2.8454,-2.8454,-2.8454,-2.8453,0,-2.7473,-2.7542,-2.7605,-2.7701,-2.7726,-2.7756,-2.7838,-2.7873,-2.7927,-2.7984,-2.8001,-2.8087,-2.8151,-2.8223,-2.8312,-2.8347,-2.84,-2.8419,-2.8374,-2.8382,-2.8387,-2.8385,-2.8391,-2.8396,-2.8428,-2.8428,-2.8428,0,-2.7465,-2.7497,-2.7595,-2.763,-2.7673,-2.7728,-2.7769,-2.7842,-2.7883,-2.797,-2.7995,-2.8064,-2.8122,-2.8223,-2.8294,-2.8362,-2.8384,-2.8381,-2.8394,-2.8374,-2.8384,-2.8381,-2.8384,-2.8377,-2.8376,-2.8375,-2.8375,0,-2.7443,-2.7476,-2.7533,-2.7602,-2.7649,-2.7707,-2.7768,-2.7793,-2.7879,-2.7922,-2.7988,-2.8034,-2.8124,-2.8192,-2.827,-2.8318,-2.8361,-2.837,-2.8376,-2.8357,-2.8329,-2.8344,-2.8363,-2.837,-2.837,-2.8371,-2.8371,-2.8371,-2.7416,-2.7448,-2.7522,-2.7584,-2.7637,-2.7693,-2.7731,-2.779,-2.7846,-2.7925,-2.7966,-2.8031,-2.8106,-2.8214,-2.8261,-2.8315,-2.8328,-2.8336,-2.8339,-2.8339,-2.8334,-2.8321,-2.8329,-2.8329,-2.833,-2.833,-2.833,0,-2.7397,-2.7449,-2.7505,-2.7588,-2.7636,-2.7672,-2.7742,-2.778,-2.7837,-2.7903,-2.7959,-2.8036,-2.8103,-2.8179,-2.8251,-2.8279,-2.8301,-2.8295,-2.8294,-2.8305,-2.8318,-2.8305,-2.8277,-2.8277,-2.8277,-2.8277,-2.8277,-2.8277,-2.7393,-2.7448,-2.749,-2.7573,-2.7625,-2.7689,-2.7726,-2.7778,-2.783,-2.7913,-2.7969,-2.8018,-2.8088,-2.8165,-2.8229,-2.825,-2.8273,-2.8262,-2.8288,-2.8299,-2.8303,-2.8308,-2.8297,-2.8266,-2.8266,-2.8271,-2.8271,-2.8271]},{"header":{"parameterUnit":"m.s-1","parameterCategory":1,"la1":30.2991,"la2":30.254,"lo1":-89.0895,"lo2":-89.0444,"dy":0.0017,"dx":0.0017,"nx":28,"ny":28,"refTime":"2023-11-20T03:00:00:Z","depth":0,"parameterNumber":3,"parameterNumberName":"V-component_of_WINDS"},"data":[0,0,0,0,0,0,0,0,0,0,0,0,0,0,0,0,0,0,0,0,0,0,0,0,0,0,0,0,0,0,0,0,0,0,0,0,0,0,0,0,0,0,0,0,0,0,0,0,0,0,0,0,0,0,0,0,0,0,5.2472,5.2473,0,5.2524,5.2525,5.2526,5.252,5.2519,5.2518,5.2517,5.2568,5.257,5.2573,0,0,0,0,0,0,0,0,0,0,0,0,0,5.2367,5.2369,5.2472,5.2473,5.2473,5.2524,5.2525,5.2526,5.252,5.2519,5.2518,5.2517,5.2568,5.257,5.2573,0,0,0,0,0,0,0,0,0,0,0,0,0,5.2415,5.2369,5.2472,5.2477,5.2478,5.2524,5.2525,5.2526,5.252,5.2519,5.2518,5.2517,5.2567,5.257,5.2573,5.2617,0,0,5.2583,5.2584,0,0,0,0,0,0,0,0,5.2412,5.2419,5.2475,5.2476,5.2478,5.2514,5.2507,5.2556,5.252,5.2504,5.2517,5.2516,5.2551,5.2556,5.2568,5.262,5.2622,5.2583,5.2585,5.2586,5.2587,0,0,0,0,0,0,0,5.2409,5.2417,5.2493,5.2476,5.2477,5.2476,5.2482,5.2516,5.2534,5.2505,5.2505,5.2511,5.2552,5.2565,5.2569,5.2623,5.2583,5.2586,5.2588,5.2589,5.2717,5.2719,0,0,0,0,0,0,5.2405,5.2414,5.2491,5.2494,5.2441,5.2479,5.2485,5.2504,5.2533,5.2537,5.2512,5.2511,5.256,5.2565,5.2571,5.2627,5.2586,5.2589,5.2591,5.2716,5.2718,5.2719,0,0,0,0,0,0,5.2402,5.2412,5.2489,5.2454,5.2464,5.2482,5.2503,5.2505,5.2519,5.2539,5.2542,5.2523,5.2559,5.2566,5.2607,5.2629,5.2591,5.2594,5.2714,5.2716,5.2719,5.2739,0,0,0,0,0,0,5.2399,5.2411,5.2428,5.2455,5.2466,5.2524,5.2504,5.2507,5.2525,5.2523,5.2549,5.2553,5.2559,5.2602,5.261,5.2633,5.2596,5.2712,5.2715,5.2718,5.2737,5.2742,5.2746,0,0,0,0,0,5.2396,5.243,5.2428,5.2438,5.2487,5.2525,5.2531,5.2539,5.2526,5.2544,5.2557,5.2552,5.2625,5.2606,5.2615,5.2639,5.2711,5.2714,5.2718,5.2734,5.2741,5.2746,0,0,0,0,0,0,5.2403,5.2433,5.2432,5.2476,5.2498,5.2524,5.2546,5.2545,5.257,5.2568,5.2575,5.2581,5.2623,5.2635,5.2613,5.2686,5.2666,5.2672,5.2676,5.2682,5.2687,5.2684,5.2599,0,0,0,0,0,5.241,5.2439,5.2463,5.25,5.2511,5.2527,5.2544,5.2548,5.2571,5.258,5.2596,5.2618,5.2647,5.2665,5.2692,5.2738,5.2745,5.2759,5.2764,5.2768,5.2773,5.2802,5.2809,5.273,5.273,5.273,0,0,5.2424,5.2444,5.2461,5.2502,5.252,5.255,5.2535,5.2566,5.2589,5.2584,5.2625,5.2638,5.2663,5.2708,5.2728,5.2719,5.2796,5.2772,5.2775,5.2778,5.2806,5.2813,5.282,5.2733,5.2732,5.2732,0,0,5.2466,5.2483,5.2517,5.2536,5.2564,5.2575,5.2583,5.261,5.2619,5.266,5.2658,5.2685,5.2733,5.2753,5.2769,5.2822,5.2819,5.2831,5.2856,5.2884,5.289,5.2896,5.2917,5.2924,5.2835,5.2835,5.2835,0,5.2479,5.2525,5.2534,5.2567,5.2586,5.2586,5.2621,5.2638,5.2673,5.2687,5.2676,5.274,5.2756,5.2807,5.282,5.2833,5.2844,5.2828,5.2889,5.2894,5.29,5.292,5.2928,5.2836,5.2836,5.2836,5.2836,0,5.2542,5.2574,5.2598,5.2634,5.2656,5.2689,5.2704,5.2725,5.2728,5.2741,5.2784,5.2805,5.2837,5.285,5.2852,5.2902,5.2896,5.2887,5.2868,5.2908,5.2928,5.2936,5.2838,5.2838,5.2838,5.2837,0,0,5.2587,5.2631,5.264,5.2658,5.2691,5.2716,5.2751,5.2785,5.2803,5.2828,5.2859,5.2901,5.2895,5.2913,5.2918,5.2942,5.2987,5.2931,5.2932,5.2943,5.3046,5.3054,5.3063,5.2985,5.2987,5.2988,5.3045,0,5.2634,5.2697,5.2708,5.2763,5.2794,5.2796,5.2826,5.285,5.2863,5.2892,5.2906,5.2937,5.2925,5.2937,5.2961,5.2976,5.3008,5.2972,5.3015,5.3016,5.301,5.3073,5.308,5.3133,5.3053,5.3054,5.3055,0,5.2695,5.2725,5.2784,5.2816,5.283,5.2857,5.2891,5.2918,5.2946,5.2954,5.2977,5.298,5.3017,5.2997,5.305,5.3025,5.3044,5.3054,5.3057,5.3062,5.3038,5.3081,5.3149,5.3158,5.3066,5.3065,5.3065,0,5.2726,5.278,5.2823,5.2838,5.2876,5.2896,5.2913,5.294,5.296,5.299,5.3004,5.3037,5.3055,5.3081,5.3093,5.3077,5.3147,5.3126,5.3155,5.3155,5.317,5.3169,5.3244,5.3179,5.3179,5.3179,5.3179,0,5.2777,5.2814,5.2838,5.2865,5.2907,5.2919,5.296,5.2976,5.3001,5.3032,5.3034,5.3063,5.3077,5.3108,5.3118,5.3162,5.3169,5.3178,5.318,5.3178,5.3178,5.3191,5.3188,5.3181,5.3181,5.318,5.318,0,5.2818,5.2835,5.2883,5.2917,5.2926,5.2956,5.2984,5.3011,5.3025,5.3064,5.3074,5.3096,5.3133,5.3148,5.3192,5.3199,5.3251,5.3249,5.3242,5.3243,5.3272,5.327,5.336,5.3373,5.3298,5.3298,5.3299,0,5.285,5.2879,5.2917,5.2938,5.2956,5.299,5.3012,5.3027,5.305,5.3086,5.3109,5.3146,5.3177,5.3237,5.3257,5.3292,5.3292,5.3322,5.3298,5.3296,5.3296,5.3295,5.3299,5.3326,5.3327,5.3327,5.3328,0,5.2907,5.2915,5.2947,5.2985,5.3012,5.3041,5.3069,5.3087,5.3105,5.3132,5.3171,5.3195,5.3243,5.3281,5.3318,5.3335,5.3336,5.3336,5.3345,5.3344,5.3339,5.3345,5.3256,5.3333,5.3333,5.3332,5.3332,5.3332,5.2946,5.2973,5.3005,5.3042,5.3065,5.3093,5.3121,5.314,5.3173,5.3214,5.322,5.3263,5.3293,5.3343,5.3362,5.3396,5.3389,5.3401,5.3405,5.3408,5.3411,5.3333,5.3403,5.3402,5.3402,5.3402,5.3402,0,5.3004,5.3026,5.306,5.3101,5.3131,5.3131,5.3163,5.3188,5.3226,5.3255,5.3286,5.3333,5.3371,5.3395,5.3433,5.3456,5.3458,5.3466,5.3465,5.347,5.3414,5.3404,5.3464,5.3464,5.3464,5.3464,5.3464,5.3464,5.3038,5.3085,5.3098,5.3157,5.3178,5.3221,5.324,5.3267,5.329,5.3342,5.3375,5.3391,5.3419,5.346,5.3495,5.3501,5.3516,5.3526,5.3532,5.3479,5.3473,5.3467,5.3457,5.3528,5.3528,5.3585,5.3585,5.3586]}]]